Location: Alexandria
(38.8050°N, 77.0470°W)
Time: 04:00:11
(UTC-04:00)

ISS - Pass Details

Date: 12 February 2018
Orbit: 402 x 406 km, 51.6° (Epoch: 18 June)

Event Time Altitude Azimuth Distance (km) Brightness Sun altitude
Rises 18:39:03 0° 306° (NW) 2,318 0.8 -11.6°
Reaches altitude 10° 18:41:09 10° 302° (WNW) 1,456 -0.2 -12.0°
Maximum altitude 18:44:22 61° 222° (SW) 462 -3.3 -12.6°
Drops below altitude 10° 18:47:35 10° 141° (SE) 1,451 -1.3 -13.2°
Enters shadow 18:47:44 - 141° (SE) 1,515 -1.2 -13.3°
